Hourly Data Report for July 17, 2004

TORONTO CITY
ONTARIO

43°40'00.000" N
79°24'00.000" W
112.50 m
6158355
71508
XTO

Download Data

Hourly Data (July 2004)
Hourly Data Report for July 17, 2004
TIME
LST
Temp Definition
°C
Dew Point Definition
°C
Rel Hum Definition
%
Precip. Amount Definition
mm

Wind Dir Definition
10's deg

Wind Spd Definition
km/h
Visibility Definition
km
Stn Press Definition
kPa
Hmdx Definition


Wind Chill Definition


Weather Definition


00:00 22.0 15.7 67   LegendMM LegendMM LegendMM 99.57 26   LegendNANA
01:00 21.3 15.6 70   LegendMM LegendMM LegendMM 99.57 26   LegendNANA
02:00 21.0 14.9 68   LegendMM LegendMM LegendMM 99.57 25   LegendNANA
03:00 19.8 15.2 75   LegendMM LegendMM LegendMM 99.57     LegendNANA
04:00 18.9 14.7 77   LegendMM LegendMM LegendMM 99.59     LegendNANA
05:00 18.3 15.1 82   LegendMM LegendMM LegendMM 99.64     LegendNANA
06:00 19.5 15.1 76   LegendMM LegendMM LegendMM 99.70     LegendNANA
07:00 20.5 15.5 73   LegendMM LegendMM LegendMM 99.75 25   LegendNANA
08:00 21.9 16.7 72   LegendMM LegendMM LegendMM 99.79 27   LegendNANA
09:00 23.5 16.9 66   LegendMM LegendMM LegendMM 99.80 29   LegendNANA
10:00 25.0 15.9 57   LegendMM LegendMM LegendMM 99.82 30   LegendNANA
11:00 25.3 16.0 56   LegendMM LegendMM LegendMM 99.84 30   LegendNANA
12:00 23.9 16.9 65   LegendMM LegendMM LegendMM 99.88 29   LegendNANA
13:00 25.5 17.0 59   LegendMM LegendMM LegendMM 99.84 31   LegendNANA
14:00 25.3 17.8 63   LegendMM LegendMM LegendMM 99.79 31   LegendNANA
15:00 26.1 16.6 56   LegendMM LegendMM LegendMM 99.78 31   LegendNANA
16:00 26.0 16.7 57   LegendMM LegendMM LegendMM 99.79 31   LegendNANA
17:00 25.7 15.7 54   LegendMM LegendMM LegendMM 99.86 30   LegendNANA
18:00 25.3 17.1 60   LegendMM LegendMM LegendMM 99.87 31   LegendNANA
19:00 23.9 15.8 61   LegendMM LegendMM LegendMM 99.88 28   LegendNANA
20:00 22.1 17.6 76   LegendMM LegendMM LegendMM 99.91 28   LegendNANA
21:00 22.3 17.1 72   LegendMM LegendMM LegendMM 99.98 28   LegendNANA
22:00 22.2 17.0 72   LegendMM LegendMM LegendMM 100.02 27   LegendNANA
23:00 22.0 16.3 70   LegendMM LegendMM LegendMM 100.03 27   LegendNANA

Notes on Data Quality.

Legend

  • E = Estimated
  • M = Missing
  • NA = Not Available*
  • [empty] = Indicates an unobserved value
Date modified: